Year,Month,Day,Hour,Minute,Value (Times are PST for temperature in C)
2008,09,23,00,00,11.40
2008,09,23,00,01,11.40
2008,09,23,00,02,11.40
2008,09,23,00,03,11.40
2008,09,23,00,04,11.40
2008,09,23,00,05,11.40
2008,09,23,00,06,11.40
2008,09,23,00,07,11.40
2008,09,23,00,08,11.40
2008,09,23,00,09,11.40
2008,09,23,00,10,11.40
2008,09,23,00,11,11.40
2008,09,23,00,12,11.40
2008,09,23,01,02,10.80
2008,09,23,01,03,10.80
2008,09,23,01,04,10.80
2008,09,23,01,05,10.80
2008,09,23,01,06,10.80
2008,09,23,01,07,10.80
2008,09,23,01,08,10.80
2008,09,23,01,09,10.80
2008,09,23,01,10,10.80
2008,09,23,01,11,10.80
2008,09,23,01,12,10.80
2008,09,23,01,13,10.80
2008,09,23,01,14,10.80
2008,09,23,01,15,10.80
2008,09,23,01,16,10.80
2008,09,23,01,17,10.90
2008,09,23,01,18,10.90
2008,09,23,01,19,10.90
2008,09,23,01,20,10.90
2008,09,23,01,21,10.90
2008,09,23,01,22,10.90
2008,09,23,01,23,10.90
2008,09,23,01,24,10.90
2008,09,23,01,25,10.90
2008,09,23,01,26,10.90
2008,09,23,01,27,10.90
2008,09,23,01,28,10.90
2008,09,23,01,29,10.90
2008,09,23,01,30,10.90
2008,09,23,01,31,10.90
2008,09,23,01,32,10.90
2008,09,23,01,33,10.90
2008,09,23,01,34,10.90
2008,09,23,01,35,10.90
2008,09,23,01,36,10.90
2008,09,23,01,37,10.90
2008,09,23,01,38,10.90
2008,09,23,01,39,10.90
2008,09,23,01,40,10.90
2008,09,23,01,41,10.90
2008,09,23,01,42,10.90
2008,09,23,01,43,10.90
2008,09,23,01,44,10.90
2008,09,23,01,45,10.90
2008,09,23,01,46,10.90
2008,09,23,01,47,10.90
2008,09,23,01,48,10.90
2008,09,23,01,49,10.90
2008,09,23,01,50,10.90
2008,09,23,01,51,10.90
2008,09,23,01,52,10.90
2008,09,23,01,53,10.90
2008,09,23,01,54,10.90
2008,09,23,01,55,10.90
2008,09,23,01,56,10.90
2008,09,23,01,57,10.90
2008,09,23,01,58,10.80
2008,09,23,01,59,10.80
2008,09,23,02,00,10.80
2008,09,23,02,01,10.80
2008,09,23,02,02,10.80
2008,09,23,02,03,10.80
2008,09,23,02,04,10.80
2008,09,23,02,05,10.80
2008,09,23,02,06,10.80
2008,09,23,02,07,10.70
2008,09,23,02,08,10.70
2008,09,23,02,09,10.70
2008,09,23,02,10,10.70
2008,09,23,02,11,10.70
2008,09,23,02,12,10.70
2008,09,23,02,13,10.70
2008,09,23,02,14,10.60
2008,09,23,02,15,10.60
2008,09,23,02,16,10.60
2008,09,23,02,17,10.60
2008,09,23,02,18,10.60
2008,09,23,02,19,10.60
2008,09,23,02,20,10.60
2008,09,23,02,21,10.60
2008,09,23,02,22,10.50
2008,09,23,02,23,10.40
2008,09,23,02,24,10.40
2008,09,23,02,25,10.40
2008,09,23,02,26,10.40
2008,09,23,02,27,10.40
2008,09,23,02,28,10.40
2008,09,23,02,29,10.40
2008,09,23,02,30,10.30
2008,09,23,02,31,10.30
2008,09,23,02,32,10.30
2008,09,23,02,33,10.30
2008,09,23,02,34,10.30
2008,09,23,02,35,10.20
2008,09,23,02,36,10.20
2008,09,23,02,37,10.20
2008,09,23,02,38,10.20
2008,09,23,02,39,10.20
2008,09,23,02,40,10.20
2008,09,23,02,41,10.20
2008,09,23,02,42,10.20
2008,09,23,02,43,10.10
2008,09,23,02,44,10.10
2008,09,23,02,45,10.10
2008,09,23,02,46,10.10
2008,09,23,02,47,10.10
2008,09,23,02,48,10.10
2008,09,23,02,49,10.10
2008,09,23,02,50,10.10
2008,09,23,02,51,10.10
2008,09,23,02,52,10.10
2008,09,23,02,53,10.10
2008,09,23,02,54,10.10
2008,09,23,02,55,10.10
2008,09,23,02,56,10.10
2008,09,23,02,57,10.10
2008,09,23,02,58,10.10
2008,09,23,02,59,10.10
2008,09,23,03,00,10.10
2008,09,23,03,01,10.00
2008,09,23,03,02,9.90
2008,09,23,03,03,9.90
2008,09,23,03,04,9.90
2008,09,23,03,05,9.90
2008,09,23,03,06,9.90
2008,09,23,03,07,9.90
2008,09,23,03,08,9.90
2008,09,23,03,09,9.90
2008,09,23,03,10,9.90
2008,09,23,03,11,9.80
2008,09,23,03,12,9.80
2008,09,23,03,13,9.80
2008,09,23,03,14,9.80
2008,09,23,03,15,9.70
2008,09,23,03,16,9.70
2008,09,23,03,17,9.70
2008,09,23,03,18,9.70
2008,09,23,03,19,9.70
2008,09,23,03,20,9.60
2008,09,23,03,21,9.60
2008,09,23,03,22,9.60
2008,09,23,03,23,9.50
2008,09,23,03,24,9.50
2008,09,23,03,25,9.40
2008,09,23,03,26,9.40
2008,09,23,03,27,9.40
2008,09,23,03,28,9.30
2008,09,23,03,29,9.30
2008,09,23,03,30,9.30
2008,09,23,03,31,9.20
2008,09,23,03,32,9.20
2008,09,23,03,33,9.20
2008,09,23,03,34,9.20
2008,09,23,03,35,9.10
2008,09,23,03,36,9.10
2008,09,23,03,37,9.10
2008,09,23,03,38,9.00
2008,09,23,03,39,9.00
2008,09,23,03,40,9.00
2008,09,23,03,41,8.90
2008,09,23,03,42,8.90
2008,09,23,03,43,8.90
2008,09,23,03,44,8.80
2008,09,23,03,45,8.80
2008,09,23,03,46,8.80
2008,09,23,03,47,8.80
2008,09,23,03,48,8.80
2008,09,23,03,49,8.70
2008,09,23,03,50,8.70
2008,09,23,03,51,8.70
2008,09,23,03,52,8.70
2008,09,23,03,53,8.70
2008,09,23,03,54,8.70
2008,09,23,03,55,8.70
2008,09,23,03,56,8.70
2008,09,23,03,57,8.70
2008,09,23,03,58,8.70
2008,09,23,03,59,8.70
2008,09,23,04,00,8.60
2008,09,23,04,01,8.60
2008,09,23,04,02,8.60
2008,09,23,04,03,8.60
2008,09,23,04,04,8.60
2008,09,23,04,05,8.60
2008,09,23,04,06,8.60
2008,09,23,04,07,8.50
2008,09,23,04,08,8.50
2008,09,23,04,09,8.50
2008,09,23,04,10,8.50
2008,09,23,04,11,8.50
2008,09,23,04,12,8.50
2008,09,23,04,13,8.50
2008,09,23,04,14,8.50
2008,09,23,04,15,8.40
2008,09,23,04,16,8.40
2008,09,23,04,17,8.40
2008,09,23,04,18,8.40
2008,09,23,04,19,8.40
2008,09,23,04,20,8.40
2008,09,23,04,21,8.40
2008,09,23,04,22,8.40
2008,09,23,04,23,8.40
2008,09,23,04,24,8.40
2008,09,23,04,25,8.40
2008,09,23,04,26,8.40
2008,09,23,04,27,8.40
2008,09,23,04,28,8.40
2008,09,23,04,29,8.40
2008,09,23,04,30,8.40
2008,09,23,04,31,8.40
2008,09,23,04,32,8.40
2008,09,23,04,33,8.40
2008,09,23,04,34,8.40
2008,09,23,04,35,8.40
2008,09,23,04,36,8.40
2008,09,23,04,37,8.40
2008,09,23,04,38,8.40
2008,09,23,04,39,8.40
2008,09,23,04,40,8.40
2008,09,23,04,41,8.40
2008,09,23,04,42,8.40
2008,09,23,04,43,8.40
2008,09,23,04,44,8.40
2008,09,23,04,45,8.30
2008,09,23,04,46,8.30
2008,09,23,04,47,8.30
2008,09,23,04,48,8.30
2008,09,23,04,49,8.30
2008,09,23,04,50,8.30
2008,09,23,04,51,8.30
2008,09,23,04,52,8.30
2008,09,23,04,53,8.30
2008,09,23,04,54,8.30
2008,09,23,04,55,8.30
2008,09,23,04,56,8.30
2008,09,23,04,57,8.30
2008,09,23,04,58,8.30
2008,09,23,04,59,8.30
2008,09,23,05,00,8.30
2008,09,23,05,01,8.30
2008,09,23,05,02,8.30
2008,09,23,05,03,8.30
2008,09,23,05,04,8.30
2008,09,23,05,05,8.30
2008,09,23,05,06,8.30
2008,09,23,05,07,8.30
2008,09,23,05,08,8.30
2008,09,23,05,09,8.30
2008,09,23,05,10,8.30
2008,09,23,05,11,8.30
2008,09,23,05,12,8.30
2008,09,23,05,13,8.30
2008,09,23,05,14,8.30
2008,09,23,05,15,8.30
2008,09,23,05,16,8.30
2008,09,23,05,17,8.30
2008,09,23,05,18,8.30
2008,09,23,05,19,8.30
2008,09,23,05,20,8.30
2008,09,23,05,21,8.30
2008,09,23,05,22,8.30
2008,09,23,05,23,8.20
2008,09,23,05,24,8.20
2008,09,23,05,25,8.20
2008,09,23,05,26,8.20
2008,09,23,05,27,8.20
2008,09,23,05,28,8.20
2008,09,23,05,29,8.20
2008,09,23,05,30,8.20
2008,09,23,05,31,8.20
2008,09,23,05,32,8.20
2008,09,23,05,33,8.10
2008,09,23,05,34,8.10
2008,09,23,05,35,8.10
2008,09,23,05,36,8.10
2008,09,23,05,37,8.10
2008,09,23,05,38,8.10
2008,09,23,05,39,8.00
2008,09,23,05,40,8.00
2008,09,23,05,41,8.00
2008,09,23,05,42,8.00
2008,09,23,05,43,8.00
2008,09,23,05,44,8.00
2008,09,23,05,45,8.00
2008,09,23,05,46,7.90
2008,09,23,05,47,7.90
2008,09,23,05,48,7.90
2008,09,23,05,49,7.90
2008,09,23,05,50,7.90
2008,09,23,05,51,7.90
2008,09,23,05,52,7.90
2008,09,23,05,53,7.90
2008,09,23,05,54,7.90
2008,09,23,05,55,7.90
2008,09,23,05,56,7.90
2008,09,23,05,57,7.90
2008,09,23,05,58,7.90
2008,09,23,05,59,7.90
2008,09,23,06,00,7.90
2008,09,23,06,01,7.90
2008,09,23,06,02,7.90
2008,09,23,06,03,7.90
2008,09,23,06,04,7.90
2008,09,23,06,05,7.90
2008,09,23,06,06,7.90
2008,09,23,06,07,7.90
2008,09,23,06,08,7.90
2008,09,23,06,09,7.80
2008,09,23,06,10,7.80
2008,09,23,06,11,7.80
2008,09,23,06,12,7.80
2008,09,23,06,13,7.80
2008,09,23,06,14,7.80
2008,09,23,06,15,7.80
2008,09,23,06,16,7.80
2008,09,23,06,17,7.80
2008,09,23,06,18,7.80
2008,09,23,06,19,7.80
2008,09,23,06,20,7.80
2008,09,23,06,21,7.80
2008,09,23,06,22,7.80
2008,09,23,06,23,7.80
2008,09,23,06,24,7.80
2008,09,23,06,25,7.80
2008,09,23,06,26,7.80
2008,09,23,06,27,7.80
2008,09,23,06,28,7.80
2008,09,23,06,29,7.80
2008,09,23,06,30,7.80
2008,09,23,06,31,7.80
2008,09,23,06,32,7.80
2008,09,23,06,33,7.80
2008,09,23,06,34,7.80
2008,09,23,06,35,7.80
2008,09,23,06,36,7.80
2008,09,23,06,37,7.80
2008,09,23,06,38,7.80
2008,09,23,06,39,7.80
2008,09,23,06,40,7.80
2008,09,23,06,41,7.80
2008,09,23,06,42,7.80
2008,09,23,06,43,7.70
2008,09,23,06,44,7.70
2008,09,23,06,45,7.70
2008,09,23,06,46,7.60
2008,09,23,06,47,7.60
2008,09,23,06,48,7.60
2008,09,23,06,49,7.60
2008,09,23,06,50,7.50
2008,09,23,06,51,7.50
2008,09,23,06,52,7.50
2008,09,23,06,53,7.40
2008,09,23,06,54,7.40
2008,09,23,06,55,7.40
2008,09,23,06,56,7.40
2008,09,23,06,57,7.30
2008,09,23,06,58,7.30
2008,09,23,06,59,7.30
2008,09,23,07,00,7.30
2008,09,23,07,01,7.30
2008,09,23,07,02,7.30
2008,09,23,07,03,7.30
2008,09,23,07,04,7.30
2008,09,23,07,05,7.20
2008,09,23,07,06,7.20
2008,09,23,07,07,7.20
2008,09,23,07,08,7.20
2008,09,23,07,09,7.20
2008,09,23,07,10,7.20
2008,09,23,07,11,7.20
2008,09,23,07,12,7.20
2008,09,23,07,13,7.20
2008,09,23,07,14,7.10
2008,09,23,07,15,7.10
2008,09,23,07,16,7.10
2008,09,23,07,17,7.10
2008,09,23,07,18,7.10
2008,09,23,07,19,7.10
2008,09,23,07,20,7.10
2008,09,23,07,21,7.10
2008,09,23,07,22,7.00
2008,09,23,07,23,7.00
2008,09,23,07,24,7.00
2008,09,23,07,25,7.00
2008,09,23,07,26,7.00
2008,09,23,07,27,7.00
2008,09,23,07,28,7.00
2008,09,23,07,29,7.00
2008,09,23,07,30,7.00
2008,09,23,07,31,7.00
2008,09,23,07,32,7.00
2008,09,23,07,33,7.00
2008,09,23,07,34,6.90
2008,09,23,07,35,6.90
2008,09,23,07,36,6.90
2008,09,23,07,37,7.00
2008,09,23,07,38,6.90
2008,09,23,07,39,6.90
2008,09,23,07,40,6.90
2008,09,23,07,41,6.90
2008,09,23,07,42,6.90
2008,09,23,07,43,6.90
2008,09,23,07,44,6.90
2008,09,23,07,45,7.00
2008,09,23,07,46,7.00
2008,09,23,07,47,7.00
2008,09,23,07,48,7.00
2008,09,23,07,49,7.00
2008,09,23,07,50,7.00
2008,09,23,07,51,7.10
2008,09,23,07,52,7.10
2008,09,23,07,53,7.10
2008,09,23,07,54,7.10
2008,09,23,07,55,7.10
2008,09,23,07,56,7.20
2008,09,23,07,57,7.20
2008,09,23,07,58,7.20
2008,09,23,07,59,7.30
2008,09,23,08,00,7.30
2008,09,23,08,01,7.30
2008,09,23,08,02,7.30
2008,09,23,08,03,7.40
2008,09,23,08,04,7.40
2008,09,23,08,05,7.40
2008,09,23,08,06,7.50
2008,09,23,08,07,7.50
2008,09,23,08,08,7.60
2008,09,23,08,09,7.60
2008,09,23,08,10,7.70
2008,09,23,08,11,7.80
2008,09,23,08,12,7.90
2008,09,23,08,13,7.90
2008,09,23,08,14,8.00
2008,09,23,08,15,8.00
2008,09,23,08,16,8.10
2008,09,23,08,17,8.10
2008,09,23,08,18,8.20
2008,09,23,08,19,8.20
2008,09,23,08,20,8.20
2008,09,23,08,21,8.30
2008,09,23,08,22,8.30
2008,09,23,08,23,8.40
2008,09,23,08,24,8.50
2008,09,23,08,25,8.60
2008,09,23,08,26,8.60
2008,09,23,08,27,8.70
2008,09,23,08,28,8.80
2008,09,23,08,29,8.90
2008,09,23,08,30,9.00
2008,09,23,08,31,9.20
2008,09,23,08,32,9.20
2008,09,23,08,33,9.30
2008,09,23,08,34,9.40
2008,09,23,08,35,9.50
2008,09,23,08,36,9.50
2008,09,23,08,37,9.60
2008,09,23,08,38,9.70
2008,09,23,08,39,9.70
2008,09,23,08,40,9.80
2008,09,23,08,41,9.80
2008,09,23,08,42,9.90
2008,09,23,08,43,10.00
2008,09,23,08,44,10.10
2008,09,23,08,45,10.10
2008,09,23,08,46,10.10
2008,09,23,08,47,10.20
2008,09,23,08,48,10.20
2008,09,23,08,49,10.20
2008,09,23,08,50,10.30
2008,09,23,08,51,10.30
2008,09,23,08,52,10.40
2008,09,23,08,53,10.40
2008,09,23,08,54,10.40
2008,09,23,08,55,10.40
2008,09,23,08,56,10.40
2008,09,23,08,57,10.60
2008,09,23,08,58,10.60
2008,09,23,08,59,10.60
2008,09,23,09,00,10.60
2008,09,23,09,01,10.60
2008,09,23,09,02,10.70
2008,09,23,09,03,10.70
2008,09,23,09,04,10.70
2008,09,23,09,05,10.80
2008,09,23,09,06,10.80
2008,09,23,09,07,10.80
2008,09,23,09,08,10.90
2008,09,23,09,09,10.90
2008,09,23,09,10,10.90
2008,09,23,09,11,10.90
2008,09,23,09,12,11.00
2008,09,23,09,13,11.10
2008,09,23,09,14,11.10
2008,09,23,09,15,11.10
2008,09,23,09,16,11.20
2008,09,23,09,17,11.20
2008,09,23,09,18,11.30
2008,09,23,09,19,11.30
2008,09,23,09,20,11.40
2008,09,23,09,21,11.40
2008,09,23,09,22,11.40
2008,09,23,09,23,11.40
2008,09,23,09,24,11.50
2008,09,23,09,25,11.60
2008,09,23,09,26,11.60
2008,09,23,09,27,11.60
2008,09,23,09,28,11.60
2008,09,23,09,29,11.60
2008,09,23,09,30,11.60
2008,09,23,09,31,11.70
2008,09,23,09,32,11.70
2008,09,23,09,33,11.70
2008,09,23,09,34,11.70
2008,09,23,09,35,11.80
2008,09,23,09,36,11.80
2008,09,23,09,37,11.80
2008,09,23,09,38,11.80
2008,09,23,09,39,11.80
2008,09,23,09,40,11.80
2008,09,23,09,41,11.90
2008,09,23,09,42,11.90
2008,09,23,09,43,11.90
2008,09,23,09,44,12.00
2008,09,23,09,45,12.00
2008,09,23,09,46,12.00
2008,09,23,09,47,12.10
2008,09,23,09,48,12.10
2008,09,23,09,49,12.10
2008,09,23,09,50,12.10
2008,09,23,09,51,12.10
2008,09,23,09,52,12.10
2008,09,23,09,53,12.10
2008,09,23,09,54,12.10
2008,09,23,09,55,12.20
2008,09,23,09,56,12.20
2008,09,23,09,57,12.20
2008,09,23,09,58,12.20
2008,09,23,09,59,12.30
2008,09,23,10,00,12.30
2008,09,23,10,01,12.30
2008,09,23,10,02,12.30
2008,09,23,10,03,12.30
2008,09,23,10,04,12.30
2008,09,23,10,05,12.30
2008,09,23,10,06,12.30
2008,09,23,10,07,12.30
2008,09,23,10,08,12.30
2008,09,23,10,09,12.30
2008,09,23,10,10,12.30
2008,09,23,10,11,12.30
2008,09,23,10,12,12.40
2008,09,23,10,13,12.40
2008,09,23,10,14,12.40
2008,09,23,10,15,12.50
2008,09,23,10,16,12.50
2008,09,23,10,17,12.60
2008,09,23,10,18,12.60
2008,09,23,10,19,12.60
2008,09,23,10,20,12.60
2008,09,23,10,21,12.70
2008,09,23,10,22,12.70
2008,09,23,10,23,12.70
2008,09,23,10,24,12.70
2008,09,23,10,25,12.70
2008,09,23,10,26,12.70
2008,09,23,10,27,12.70
2008,09,23,10,28,12.70
2008,09,23,10,29,12.70
2008,09,23,10,30,12.70
2008,09,23,10,31,12.70
2008,09,23,10,32,12.70
2008,09,23,10,33,12.70
2008,09,23,10,34,12.60
2008,09,23,10,35,12.60
2008,09,23,10,36,12.70
2008,09,23,10,37,12.70
2008,09,23,10,38,12.70
2008,09,23,10,39,12.80
2008,09,23,10,40,12.80
2008,09,23,10,41,12.80
2008,09,23,10,42,12.90
2008,09,23,10,43,12.90
2008,09,23,10,44,13.00
2008,09,23,10,45,13.00
2008,09,23,10,46,13.10
2008,09,23,10,47,13.10
2008,09,23,10,48,13.20
2008,09,23,10,49,13.30
2008,09,23,10,50,13.30
2008,09,23,10,51,13.30
2008,09,23,10,52,13.30
2008,09,23,10,53,13.40
2008,09,23,10,54,13.40
2008,09,23,10,55,13.50
2008,09,23,10,56,13.60
2008,09,23,10,57,13.60
2008,09,23,10,58,13.70
2008,09,23,10,59,13.80
2008,09,23,11,00,13.80
2008,09,23,11,01,13.90
2008,09,23,11,02,13.80
2008,09,23,11,03,13.80
2008,09,23,11,04,13.70
2008,09,23,11,05,13.70
2008,09,23,11,06,13.70
2008,09,23,11,07,13.70
2008,09,23,11,08,13.60
2008,09,23,11,09,13.60
2008,09,23,11,10,13.60
2008,09,23,11,11,13.50
2008,09,23,11,12,13.50
2008,09,23,11,13,13.50
2008,09,23,11,14,13.40
2008,09,23,11,15,13.40
2008,09,23,11,16,13.40
2008,09,23,11,17,13.40
2008,09,23,11,18,13.40
2008,09,23,11,19,13.50
2008,09,23,11,20,13.50
2008,09,23,11,21,13.50
2008,09,23,11,22,13.60
2008,09,23,11,23,13.60
2008,09,23,11,24,13.70
2008,09,23,11,25,13.70
2008,09,23,11,26,13.70
2008,09,23,11,27,13.80
2008,09,23,11,28,13.90
2008,09,23,11,29,14.00
2008,09,23,11,30,14.10
2008,09,23,11,31,14.20
2008,09,23,11,32,14.20
2008,09,23,11,33,14.30
2008,09,23,11,34,14.30
2008,09,23,11,35,14.30
2008,09,23,11,36,14.30
2008,09,23,11,37,14.30
2008,09,23,11,38,14.20
2008,09,23,11,39,14.20
2008,09,23,11,40,14.20
2008,09,23,11,41,14.20
2008,09,23,11,42,14.20
2008,09,23,11,43,14.10
2008,09,23,11,44,14.10
2008,09,23,11,45,14.10
2008,09,23,11,46,14.10
2008,09,23,11,47,14.20
2008,09,23,11,48,14.20
2008,09,23,11,49,14.20
2008,09,23,11,50,14.20
2008,09,23,11,51,14.20
2008,09,23,11,52,14.30
2008,09,23,11,53,14.20
2008,09,23,11,54,14.20
2008,09,23,11,55,14.20
2008,09,23,11,56,14.20
2008,09,23,11,57,14.10
2008,09,23,11,58,14.10
2008,09,23,11,59,14.10
2008,09,23,12,00,14.00
2008,09,23,12,01,14.00
2008,09,23,12,02,14.00
2008,09,23,12,03,14.10
2008,09,23,12,04,14.10
2008,09,23,12,05,14.10
2008,09,23,12,06,14.10
2008,09,23,12,07,14.10
2008,09,23,12,08,14.10
2008,09,23,12,09,14.00
2008,09,23,12,10,14.00
2008,09,23,12,11,13.90
2008,09,23,12,12,13.90
2008,09,23,12,13,13.90
2008,09,23,12,14,13.90
2008,09,23,12,15,13.90
2008,09,23,12,16,13.90
2008,09,23,12,17,13.90
2008,09,23,12,18,13.90
2008,09,23,12,19,14.00
2008,09,23,12,20,14.00
2008,09,23,12,21,14.10
2008,09,23,12,22,14.20
2008,09,23,12,23,14.20
2008,09,23,12,24,14.20
2008,09,23,12,25,14.30
2008,09,23,12,26,14.30
2008,09,23,12,27,14.30
2008,09,23,12,28,14.30
2008,09,23,12,29,14.30
2008,09,23,12,30,14.30
2008,09,23,12,31,14.20
2008,09,23,12,32,14.20
2008,09,23,12,33,14.20
2008,09,23,12,34,14.20
2008,09,23,12,35,14.20
2008,09,23,12,36,14.20
2008,09,23,12,37,14.20
2008,09,23,12,38,14.30
2008,09,23,12,39,14.30
2008,09,23,12,40,14.30
2008,09,23,12,41,14.40
2008,09,23,12,42,14.40
2008,09,23,12,43,14.50
2008,09,23,12,44,14.60
2008,09,23,12,45,14.60
2008,09,23,12,46,14.70
2008,09,23,12,47,14.80
2008,09,23,12,48,14.80
2008,09,23,12,49,14.80
2008,09,23,12,50,14.80
2008,09,23,12,51,14.90
2008,09,23,12,52,14.90
2008,09,23,12,53,14.90
2008,09,23,12,54,14.90
2008,09,23,12,55,15.00
2008,09,23,12,56,15.00
2008,09,23,12,57,15.10
2008,09,23,12,58,15.10
2008,09,23,12,59,15.20
2008,09,23,13,00,15.20
2008,09,23,13,01,15.30
2008,09,23,13,02,15.40
2008,09,23,13,03,15.40
2008,09,23,13,04,15.40
2008,09,23,13,05,15.40
2008,09,23,13,06,15.30
2008,09,23,13,07,15.30
2008,09,23,13,08,15.30
2008,09,23,13,09,15.30
2008,09,23,13,10,15.30
2008,09,23,13,11,15.30
2008,09,23,13,12,15.30
2008,09,23,13,13,15.30
2008,09,23,13,14,15.30
2008,09,23,13,15,15.20
2008,09,23,13,16,15.20
2008,09,23,13,17,15.10
2008,09,23,13,18,15.10
2008,09,23,13,19,15.10
2008,09,23,13,20,15.10
2008,09,23,13,21,15.10
2008,09,23,13,22,15.10
2008,09,23,13,23,15.10
2008,09,23,13,24,15.10
2008,09,23,13,25,15.10
2008,09,23,13,26,15.10
2008,09,23,13,27,15.10
2008,09,23,13,28,15.10
2008,09,23,13,29,15.10
2008,09,23,13,30,15.20
2008,09,23,13,31,15.20
2008,09,23,13,32,15.20
2008,09,23,13,33,15.30
2008,09,23,13,34,15.20
2008,09,23,13,35,15.20
2008,09,23,13,36,15.20
2008,09,23,13,37,15.10
2008,09,23,13,38,15.10
2008,09,23,13,39,15.10
2008,09,23,13,40,15.10
2008,09,23,13,41,15.10
2008,09,23,13,42,15.10
2008,09,23,13,43,15.10
2008,09,23,13,44,15.10
2008,09,23,13,45,15.10
2008,09,23,13,46,15.10
2008,09,23,13,47,15.00
2008,09,23,13,48,15.00
2008,09,23,13,49,15.00
2008,09,23,13,50,15.00
2008,09,23,13,51,14.90
2008,09,23,13,52,14.90
2008,09,23,13,53,14.80
2008,09,23,13,54,14.80
2008,09,23,13,55,14.80
2008,09,23,13,56,14.80
2008,09,23,13,57,14.80
2008,09,23,13,58,14.70
2008,09,23,13,59,14.60
2008,09,23,14,00,14.60
2008,09,23,14,01,14.60
2008,09,23,14,02,14.60
2008,09,23,14,03,14.60
2008,09,23,14,04,14.50
2008,09,23,14,05,14.50
2008,09,23,14,06,14.40
2008,09,23,14,07,14.30
2008,09,23,14,08,14.30
2008,09,23,14,09,14.30
2008,09,23,14,10,14.30
2008,09,23,14,11,14.30
2008,09,23,14,12,14.30
2008,09,23,14,13,14.30
2008,09,23,14,14,14.30
2008,09,23,14,15,14.30
2008,09,23,14,16,14.40
2008,09,23,14,17,14.40
2008,09,23,14,18,14.40
2008,09,23,14,19,14.50
2008,09,23,14,20,14.50
2008,09,23,14,21,14.50
2008,09,23,14,22,14.50
2008,09,23,14,23,14.40
2008,09,23,14,24,14.40
2008,09,23,14,25,14.40
2008,09,23,14,26,14.30
2008,09,23,14,27,14.30
2008,09,23,14,28,14.30
2008,09,23,14,29,14.30
2008,09,23,14,30,14.30
2008,09,23,14,31,14.40
2008,09,23,14,32,14.40
2008,09,23,14,33,14.40
2008,09,23,14,34,14.50
2008,09,23,14,35,14.50
2008,09,23,14,36,14.50
2008,09,23,14,37,14.50
2008,09,23,14,38,14.50
2008,09,23,14,39,14.50
2008,09,23,14,40,14.50
2008,09,23,14,41,14.50
2008,09,23,14,42,14.50
2008,09,23,14,43,14.50
2008,09,23,14,44,14.50
2008,09,23,14,45,14.40
2008,09,23,14,46,14.30
2008,09,23,14,47,14.30
2008,09,23,14,48,14.30
2008,09,23,14,49,14.30
2008,09,23,14,50,14.30
2008,09,23,14,51,14.30
2008,09,23,14,52,14.40
2008,09,23,14,53,14.40
2008,09,23,14,54,14.40
2008,09,23,14,55,14.40
2008,09,23,14,56,14.40
2008,09,23,14,57,14.40
2008,09,23,14,58,14.50
2008,09,23,14,59,14.50
2008,09,23,15,00,14.50
2008,09,23,15,01,14.60
2008,09,23,15,02,14.60
2008,09,23,15,03,14.60
2008,09,23,15,04,14.60
2008,09,23,15,05,14.60
2008,09,23,15,06,14.70
2008,09,23,15,07,14.70
2008,09,23,15,08,14.70
2008,09,23,15,09,14.70
2008,09,23,15,10,14.70
2008,09,23,15,11,14.70
2008,09,23,15,12,14.70
2008,09,23,15,13,14.70
2008,09,23,15,14,14.70
2008,09,23,15,15,14.70
2008,09,23,15,16,14.70
2008,09,23,15,17,14.70
2008,09,23,15,18,14.70
2008,09,23,15,19,14.70
2008,09,23,15,20,14.70
2008,09,23,15,21,14.70
2008,09,23,15,22,14.70
2008,09,23,15,23,14.60
2008,09,23,15,24,14.60
2008,09,23,15,25,14.60
2008,09,23,15,26,14.60
2008,09,23,15,27,14.60
2008,09,23,15,28,14.50
2008,09,23,15,29,14.50
2008,09,23,15,30,14.50
2008,09,23,15,31,14.40
2008,09,23,15,32,14.40
2008,09,23,15,33,14.40
2008,09,23,15,34,14.40
2008,09,23,15,35,14.40
2008,09,23,15,36,14.40
2008,09,23,15,37,14.40
2008,09,23,15,38,14.30
2008,09,23,15,39,14.30
2008,09,23,15,40,14.30
2008,09,23,15,41,14.30
2008,09,23,15,42,14.30
2008,09,23,15,43,14.30
2008,09,23,15,44,14.30
2008,09,23,15,45,14.30
2008,09,23,15,46,14.30
2008,09,23,15,47,14.30
2008,09,23,15,48,14.40
2008,09,23,15,49,14.40
2008,09,23,15,50,14.40
2008,09,23,15,51,14.40
2008,09,23,15,52,14.40
2008,09,23,15,53,14.40
2008,09,23,15,54,14.40
2008,09,23,15,55,14.40
2008,09,23,15,56,14.40
2008,09,23,15,57,14.40
2008,09,23,15,58,14.40
2008,09,23,15,59,14.40
2008,09,23,16,00,14.40
2008,09,23,16,01,14.40
2008,09,23,16,02,14.40
2008,09,23,16,03,14.40
2008,09,23,16,04,14.40
2008,09,23,16,05,14.40
2008,09,23,16,06,14.40
2008,09,23,16,07,14.40
2008,09,23,16,08,14.40
2008,09,23,16,09,14.40
2008,09,23,16,10,14.40
2008,09,23,16,11,14.40
2008,09,23,16,12,14.40
2008,09,23,16,13,14.40
2008,09,23,16,14,14.40
2008,09,23,16,15,14.40
2008,09,23,16,16,14.30
2008,09,23,16,17,14.30
2008,09,23,16,18,14.30
2008,09,23,16,19,14.40
2008,09,23,16,20,14.40
2008,09,23,16,21,14.40
2008,09,23,16,22,14.40
2008,09,23,16,23,14.50
2008,09,23,16,24,14.50
2008,09,23,16,25,14.50
2008,09,23,16,26,14.60
2008,09,23,16,27,14.60
2008,09,23,16,28,14.60
2008,09,23,16,29,14.60
2008,09,23,16,30,14.70
2008,09,23,16,31,14.70
2008,09,23,16,32,14.70
2008,09,23,16,33,14.70
2008,09,23,16,34,14.70
2008,09,23,16,35,14.70
2008,09,23,16,36,14.60
2008,09,23,16,37,14.60
2008,09,23,16,38,14.60
2008,09,23,16,39,14.60
2008,09,23,16,40,14.60
2008,09,23,16,41,14.70
2008,09,23,16,42,14.70
2008,09,23,16,43,14.70
2008,09,23,16,44,14.60
2008,09,23,16,45,14.50
2008,09,23,16,46,14.50
2008,09,23,16,47,14.50
2008,09,23,16,48,14.50
2008,09,23,16,49,14.40
2008,09,23,16,50,14.40
2008,09,23,16,51,14.40
2008,09,23,16,52,14.40
2008,09,23,16,53,14.50
2008,09,23,16,54,14.50
2008,09,23,16,55,14.50
2008,09,23,16,56,14.50
2008,09,23,16,57,14.50
2008,09,23,16,58,14.50
2008,09,23,16,59,14.50
2008,09,23,17,00,14.50
2008,09,23,17,01,14.50
2008,09,23,17,02,14.40
2008,09,23,17,03,14.40
2008,09,23,17,04,14.40
2008,09,23,17,05,14.40
2008,09,23,17,06,14.40
2008,09,23,17,07,14.30
2008,09,23,17,08,14.30
2008,09,23,17,09,14.30
2008,09,23,17,10,14.20
2008,09,23,17,11,14.20
2008,09,23,17,12,14.20
2008,09,23,17,13,14.20
2008,09,23,17,14,14.20
2008,09,23,17,15,14.20
2008,09,23,17,16,14.20
2008,09,23,17,17,14.20
2008,09,23,17,18,14.20
2008,09,23,17,19,14.20
2008,09,23,17,20,14.20
2008,09,23,17,21,14.10
2008,09,23,17,22,14.10
2008,09,23,17,23,14.10
2008,09,23,17,24,14.00
2008,09,23,17,25,14.00
2008,09,23,17,26,14.00
2008,09,23,17,27,14.00
2008,09,23,17,28,14.00
2008,09,23,17,29,14.00
2008,09,23,17,30,13.90
2008,09,23,17,31,13.90
2008,09,23,17,32,13.90
2008,09,23,17,33,13.90
2008,09,23,17,34,13.80
2008,09,23,17,35,13.80
2008,09,23,17,36,13.70
2008,09,23,17,37,13.70
2008,09,23,17,38,13.70
2008,09,23,17,39,13.70
2008,09,23,17,40,13.70
2008,09,23,17,41,13.70
2008,09,23,17,42,13.60
2008,09,23,17,43,13.60
2008,09,23,17,44,13.60
2008,09,23,17,45,13.60
2008,09,23,17,46,13.60
2008,09,23,17,47,13.60
2008,09,23,17,48,13.50
2008,09,23,17,49,13.50
2008,09,23,17,50,13.50
2008,09,23,17,51,13.50
2008,09,23,17,52,13.50
2008,09,23,17,53,13.50
2008,09,23,17,54,13.50
2008,09,23,17,55,13.50
2008,09,23,17,56,13.50
2008,09,23,17,57,13.50
2008,09,23,17,58,13.40
2008,09,23,17,59,13.40
2008,09,23,18,00,13.40
2008,09,23,18,01,13.40
2008,09,23,18,02,13.40
2008,09,23,18,03,13.40
2008,09,23,18,04,13.40
2008,09,23,18,05,13.40
2008,09,23,18,06,13.40
2008,09,23,18,07,13.40
2008,09,23,18,08,13.40
2008,09,23,18,09,13.40
2008,09,23,18,10,13.30
2008,09,23,18,11,13.30
2008,09,23,18,12,13.30
2008,09,23,18,13,13.30
2008,09,23,18,14,13.30
2008,09,23,18,15,13.30
2008,09,23,18,16,13.30
2008,09,23,18,17,13.30
2008,09,23,18,18,13.30
2008,09,23,18,19,13.30
2008,09,23,18,20,13.30
2008,09,23,18,21,13.30
2008,09,23,18,22,13.30
2008,09,23,18,23,13.30